Theta_e
331 325 326 319 305 309 306 311 318 318 319 325 325 324 329 331 327 325 342 351 357 355 359 362 366 367 366 364 363 363 362 361 362 362 361 362 363 363 362 362 362 361 359 358 358 357 355 356 357
323 323 317 311 303 302 306 315 315 320 322 324 325 327 333 330 337 340 338 353 358 357 358 360 366 367 366 364 363 362 362 361 362 362 361 362 363 363 361 362 361 359 357 356 355 355 355 356 357
322 322 310 307 304 302 306 315 318 321 323 322 322 330 338 331 340 342 345 355 358 358 357 364 366 366 365 364 363 362 362 361 362 362 361 362 363 363 361 362 361 360 357 356 356 355 355 356 356
318 315 310 302 303 309 310 315 318 321 322 323 323 322 339 348 343 343 349 357 354 355 357 363 365 365 365 364 363 362 362 362 362 362 361 362 363 363 361 360 361 361 358 357 356 356 355 356 355
318 311 304 304 305 310 313 316 318 320 320 320 322 320 337 345 346 344 348 354 351 351 361 361 364 365 365 364 363 362 361 361 361 361 361 362 362 362 361 360 360 361 359 357 357 357 357 357 357
309 309 301 301 305 310 314 317 317 320 322 321 319 320 338 347 344 343 348 350 350 352 359 359 364 364 362 364 363 362 361 361 361 360 361 361 362 361 361 360 358 360 360 360 358 359 358 358 358
307 306 302 304 305 309 313 318 315 317 320 320 323 317 339 343 345 345 348 349 350 357 355 357 360 363 364 362 362 362 360 360 360 359 360 361 361 360 360 360 358 358 359 359 359 358 358 358 357
310 307 304 306 305 306 315 317 319 317 318 325 324 317 331 344 347 346 346 346 347 353 351 352 357 358 361 361 362 361 360 359 359 359 360 360 359 360 359 358 359 358 358 358 358 358 357 356 356
313 302 301 304 306 309 316 314 317 319 316 320 322 324 348 349 348 345 343 344 344 348 348 348 348 353 355 357 360 361 361 360 359 359 359 357 351 355 355 354 357 358 358 357 357 357 356 355 355
308 302 303 309 311 311 314 314 317 314 313 314 320 334 347 351 347 343 340 341 342 344 344 345 347 347 347 350 359 359 358 357 357 356 356 350 348 350 349 351 358 358 358 357 357 357 356 353 344
308 302 307 309 312 314 313 314 317 314 310 313 314 322 336 343 347 344 342 342 342 345 346 345 349 348 345 344 355 354 355 355 355 354 353 350 345 350 347 350 351 353 354 348 351 350 348 343 341
304 306 307 308 311 310 310 313 312 314 314 317 318 321 330 338 340 345 343 343 344 344 347 346 350 348 349 348 348 346 346 347 347 349 354 349 349 348 345 346 348 348 348 345 345 341 341 340 340
307 307 308 309 309 309 310 308 310 311 315 317 317 319 326 332 339 341 348 347 346 345 347 346 350 350 352 352 350 348 348 347 347 348 352 350 347 349 351 348 348 348 346 346 345 344 344 342 341
310 310 310 310 309 309 307 307 309 311 315 315 315 315 316 317 321 332 342 347 346 348 349 349 351 353 354 361 353 351 353 350 351 349 349 351 349 353 351 353 351 348 349 347 347 346 348 349 346
310 305 309 311 311 308 309 304 305 310 313 312 313 314 315 317 318 321 328 347 357 347 350 352 353 355 355 362 359 354 354 353 352 352 354 350 355 354 350 350 349 349 350 353 352 351 350 348 346
305 305 301 308 310 311 309 300 307 310 310 310 311 313 314 315 316 319 325 336 354 355 354 355 351 357 358 359 363 356 358 354 356 358 359 354 354 358 362 353 354 353 356 354 351 350 349 346 346
303 298 300 303 310 309 307 302 308 311 310 309 311 312 313 314 317 319 324 326 352 354 355 355 355 356 357 361 360 363 362 361 358 359 360 359 358 357 358 357 356 363 360 359 357 355 353 350 349
296 298 300 300 306 307 306 305 308 310 309 310 311 310 312 313 315 319 323 328 352 361 360 359 359 360 359 360 360 357 359 359 361 359 359 363 358 358 359 356 360 362 357 354 355 355 352 352 349
301 300 299 303 307 306 305 305 308 310 309 309 310 311 311 313 316 319 321 328 340 361 362 359 360 366 361 358 356 356 352 357 356 361 364 364 360 360 358 356 359 359 357 354 356 353 353 351 349
300 298 298 302 306 305 305 304 309 311 309 310 310 311 312 313 315 317 320 327 333 348 358 361 360 363 363 361 359 358 359 359 360 360 363 363 361 361 357 357 357 356 354 355 356 354 349 349 349
297 297 298 297 302 305 304 303 306 309 312 312 312 313 313 312 313 316 319 323 330 338 351 351 360 362 363 362 362 361 359 364 358 361 360 360 359 359 359 361 359 353 355 354 354 352 347 342 347
295 300 299 298 298 294 303 293 304 306 307 310 312 311 312 312 314 317 319 323 326 331 337 344 357 361 363 364 356 357 351 352 361 360 363 361 360 358 357 358 358 352 353 352 353 355 351 348 343
298 302 299 298 296 296 297 295 300 306 303 307 311 313 314 313 313 315 318 322 326 331 331 333 344 354 360 358 363 357 354 354 356 356 356 358 359 358 357 357 354 352 353 350 352 350 349 349 343
304 300 300 298 296 289 295 296 296 301 304 308 310 312 314 314 315 316 319 322 322 327 330 334 339 348 356 356 359 354 350 350 349 351 352 353 354 356 356 355 353 352 349 351 349 349 349 347 344
299 296 289 287 288 287 296 294 297 304 307 309 310 312 314 315 315 316 316 317 322 322 327 333 338 341 351 355 357 353 350 357 352 353 350 349 350 353 353 352 350 349 350 350 349 347 346 344 342
297 296 290 283 284 288 296 291 297 306 308 311 312 313 315 315 315 316 317 318 317 321 324 330 337 340 350 353 352 352 355 353 353 354 353 348 348 350 350 348 346 346 345 345 344 343 342 344 342
296 289 297 292 293 289 292 297 303 306 306 308 309 312 314 316 316 317 318 319 319 321 328 332 337 344 352 352 351 353 352 353 351 351 348 346 347 345 346 345 344 343 342 342 341 339 339 340 338
299 301 290 291 284 283 290 293 295 301 304 307 309 310 315 317 317 319 318 320 321 321 332 340 348 347 346 348 349 350 349 347 343 342 341 341 341 341 339 339 339 339 340 339 340 339 338 336 335
295 293 293 293 294 287 286 292 306 305 308 308 309 311 315 317 325 329 321 322 323 326 343 344 344 343 341 342 339 339 339 338 338 338 338 339 340 339 336 337 336 334 333 333 333 331 331 328 329
298 297 297 289 289 294 292 290 307 310 312 311 313 317 322 330 332 334 331 335 337 340 341 339 337 336 336 335 336 335 335 335 332 330 330 330 329 330 329 329 327 326 326 327 325 323 323 322 321
Wind_Speed
14 15 11 11 8 9 16 20 24 8 2 7 4 7 26 7 2 9 15 18 28 23 17 18 17 17 17 15 16 15 14 14 14 14 13 13 13 12 12 13 13 12 11 10 10 10 9 9 10
12 18 8 7 10 13 15 21 24 9 16 8 3 6 18 15 15 13 13 22 24 22 17 16 16 17 17 16 16 16 15 15 14 14 13 12 12 12 12 12 12 12 11 10 10 9 9 8 9
13 15 8 7 13 16 18 21 16 8 12 3 5 3 16 4 3 15 18 23 23 20 16 16 18 17 17 16 16 16 15 15 14 14 13 12 11 12 12 11 11 10 10 9 9 9 9 8 7
8 7 8 12 20 21 26 25 22 3 13 7 5 2 10 13 16 14 22 24 21 21 19 18 18 18 18 17 16 16 16 15 15 14 13 13 12 12 12 11 10 9 9 9 8 8 8 8 6
11 8 13 16 23 24 24 24 24 9 7 9 8 8 14 15 20 20 20 21 20 20 19 17 17 17 17 17 17 17 17 16 16 15 14 13 13 12 11 11 10 9 9 9 9 9 8 7 7
9 7 14 17 24 24 23 26 26 7 8 9 8 12 15 18 19 18 20 18 21 19 18 17 17 18 17 17 17 17 17 17 16 15 14 14 13 12 11 10 10 10 9 9 9 8 8 7 7
17 14 18 23 23 24 24 23 22 11 10 18 11 14 15 16 19 17 18 17 20 21 17 14 15 15 16 17 17 18 18 17 16 16 15 14 14 13 12 11 10 10 9 9 8 8 7 7 7
15 15 25 23 20 26 25 24 25 11 11 16 7 7 14 21 19 18 18 19 20 19 18 16 13 15 14 13 17 18 18 17 17 16 16 15 15 14 12 10 10 9 9 8 7 7 7 7 7
20 17 18 27 27 21 22 25 5 4 11 18 9 8 15 18 20 18 17 19 17 17 17 16 17 14 14 14 13 14 17 15 15 13 13 10 7 9 10 10 12 9 8 8 8 7 7 7 8
21 18 28 23 24 24 27 27 23 13 15 16 11 13 14 12 16 19 18 17 18 19 19 17 16 15 14 12 13 11 11 9 8 9 10 7 7 8 9 10 12 11 9 8 8 8 8 8 6
24 26 23 25 26 28 26 27 24 11 13 14 18 16 14 14 14 18 19 19 19 18 14 18 13 13 14 12 9 7 6 7 7 10 10 8 7 7 7 5 7 6 9 6 8 7 6 8 7
28 30 28 26 27 24 24 27 22 15 15 15 19 15 18 17 15 17 19 19 19 19 18 19 16 14 11 10 9 9 8 8 7 8 10 7 5 5 7 5 9 8 6 9 6 7 10 11 9
30 28 28 27 26 26 23 27 22 20 14 12 11 6 12 8 13 13 13 17 20 19 18 19 18 14 10 12 10 9 8 8 8 8 9 7 6 5 5 5 5 8 8 9 8 8 8 9 10
24 26 28 25 28 26 26 27 17 20 20 18 16 10 12 11 11 8 12 13 16 20 21 20 20 15 12 7 12 8 7 10 9 9 10 10 6 4 4 4 3 4 4 6 9 7 5 6 4
25 30 29 28 29 28 26 26 30 20 23 23 18 16 14 16 15 14 11 11 6 13 23 19 17 17 13 7 10 9 8 8 8 8 12 13 8 6 6 4 5 5 4 5 2 2 1 1 2
24 27 27 27 27 27 23 29 27 23 22 22 20 18 16 17 14 14 12 13 11 14 9 17 16 17 14 10 6 8 7 7 7 5 8 14 12 8 6 5 5 6 5 4 4 4 4 4 4
23 23 28 25 26 29 24 32 26 23 24 23 21 20 19 17 18 17 13 15 15 17 25 20 18 20 16 11 8 6 7 6 5 7 6 13 13 12 7 5 5 4 0 0 1 1 1 3 2
23 26 27 28 23 28 28 32 24 25 22 22 19 22 21 21 20 19 16 13 10 10 16 15 14 15 17 10 9 8 6 6 5 6 7 11 10 12 9 7 5 4 3 3 2 3 3 3 3
26 25 28 27 26 29 25 30 25 23 21 16 22 24 26 22 18 17 18 14 12 6 9 14 14 12 13 11 11 10 10 8 8 6 7 7 10 9 8 6 5 5 4 4 5 4 3 2 4
27 27 29 26 26 24 24 29 25 25 25 22 19 15 13 17 19 20 19 13 15 14 11 6 13 14 13 10 10 8 8 8 7 7 4 6 8 7 7 5 5 7 6 6 5 2 2 4 3
26 26 25 26 25 28 21 24 24 19 23 20 22 20 16 14 16 20 18 19 15 17 15 12 17 16 14 14 8 6 6 5 8 6 6 5 8 6 4 4 4 5 5 4 5 4 6 4 3
24 23 26 26 24 20 22 16 21 19 17 19 23 24 20 20 18 15 18 17 17 18 14 10 5 16 15 12 11 9 6 4 1 5 4 5 7 6 6 5 4 4 3 5 3 4 5 4 6
21 19 22 25 23 24 27 15 18 20 23 22 22 20 22 23 19 17 13 13 18 17 15 14 13 9 12 13 6 7 6 2 3 3 6 5 4 6 6 6 6 5 3 4 3 4 4 3 4
21 16 29 23 18 19 23 23 16 23 20 24 23 23 22 19 21 21 16 11 14 18 17 14 12 9 11 13 9 12 11 8 7 6 6 5 4 3 4 4 5 4 4 4 4 4 3 2 4
19 10 13 14 16 16 22 26 18 23 24 21 21 27 26 22 20 20 21 16 11 18 19 16 16 15 12 13 10 11 10 5 12 8 6 8 6 3 4 3 4 3 3 4 2 1 2 3 4
22 19 11 13 15 20 25 25 22 26 26 24 14 23 24 24 21 21 21 19 18 15 17 19 18 17 16 15 13 10 9 5 7 7 5 4 5 5 6 7 7 6 6 5 5 4 4 4 4
26 8 10 17 23 16 14 27 28 23 29 28 14 8 20 18 20 21 20 17 17 13 15 19 17 15 15 14 13 11 9 8 9 11 10 8 9 7 7 6 7 6 4 4 5 3 3 4 3
21 5 16 15 21 9 14 21 19 25 27 25 19 10 7 11 11 12 19 16 17 16 17 20 18 17 13 11 11 10 13 12 13 12 12 10 10 8 8 7 6 4 5 4 3 1 1 3 4
18 11 3 6 19 16 9 8 13 23 17 22 16 15 11 10 9 7 12 12 15 18 21 20 18 18 15 14 15 15 14 14 13 12 10 8 8 8 9 6 5 5 6 6 6 6 5 6 5
13 20 20 5 14 17 6 4 20 21 10 15 10 12 11 16 13 12 10 19 22 22 21 18 18 19 16 15 15 15 14 14 14 13 11 10 9 8 7 6 5 5 5 5 5 8 9 8 8
Wind_Direction
284 262 245 260 250 231 254 255 258 265 265 90 12 294 75 85 6 64 135 119 122 133 139 141 139 142 142 141 138 135 132 130 131 127 123 122 119 116 111 107 105 106 108 112 114 116 111 108 104
292 294 253 274 245 254 247 242 260 255 86 69 305 221 92 102 156 121 119 121 125 134 143 140 139 142 143 143 140 137 136 136 133 130 126 125 124 120 113 107 107 109 112 117 117 114 112 113 109
269 263 268 228 238 244 259 251 236 156 110 103 292 345 90 262 172 140 123 123 126 137 149 137 140 141 142 143 140 137 138 136 134 132 131 130 128 120 114 110 112 114 116 118 119 119 119 120 121
263 219 247 258 252 240 247 272 289 152 132 131 272 252 90 163 131 126 133 129 139 139 145 140 137 139 143 142 141 140 141 139 139 137 137 136 132 124 120 118 119 123 123 127 127 125 127 129 127
240 266 238 244 243 254 266 251 264 281 130 157 210 254 103 96 104 132 138 136 141 145 128 142 136 137 139 141 142 143 143 142 143 141 143 143 139 133 130 132 133 138 136 139 142 142 145 146 150
231 227 246 242 247 253 250 269 278 193 270 250 152 262 109 116 132 142 143 145 138 136 135 141 139 141 149 148 146 145 144 146 145 145 148 148 146 145 143 147 148 153 154 159 161 164 167 170 175
241 236 239 246 256 261 243 244 260 232 219 263 169 237 128 143 136 145 141 147 135 125 137 145 148 143 145 149 148 148 147 148 148 150 153 153 152 154 156 162 162 165 168 173 174 180 186 189 196
236 250 254 246 250 257 265 264 233 192 229 255 359 191 163 134 146 144 147 147 142 137 142 152 152 155 155 157 154 153 152 154 154 158 160 160 159 163 166 170 172 171 175 181 186 191 201 207 215
239 242 244 242 248 254 263 270 148 165 239 261 158 159 82 128 145 157 156 153 151 144 145 159 162 163 166 160 163 152 154 155 155 159 161 154 175 173 172 192 167 176 183 191 196 202 213 223 232
228 239 236 245 251 250 263 271 276 189 214 241 205 126 126 160 168 170 165 162 157 151 155 161 165 164 171 162 151 166 165 169 175 174 169 185 197 173 190 191 169 176 187 200 205 210 219 227 243
229 240 247 246 249 263 266 266 282 232 203 234 250 186 160 175 194 185 175 172 164 159 159 159 161 160 174 159 154 167 165 174 183 182 170 204 203 179 206 169 167 175 194 208 201 207 224 228 226
241 235 243 255 268 271 259 264 271 257 239 220 237 213 181 197 193 206 186 178 166 165 162 155 157 164 183 148 157 173 170 178 179 188 175 189 222 196 186 186 183 186 185 203 209 205 209 215 227
238 243 242 240 252 259 272 269 256 261 241 256 284 140 145 190 205 211 220 191 171 163 157 159 155 168 195 149 162 178 177 177 179 180 180 190 212 215 186 196 204 181 198 190 209 216 202 210 218
254 253 258 250 246 248 255 261 258 242 262 231 242 204 181 212 223 249 238 244 176 164 159 162 162 166 189 172 161 178 182 175 179 178 178 192 206 228 190 198 236 248 219 203 200 210 208 194 210
253 254 262 248 240 246 247 251 249 235 244 251 240 244 234 199 228 217 229 245 169 181 167 149 159 164 179 192 161 176 175 173 183 181 173 183 201 213 199 198 202 240 236 270 288 336 347 283 273
261 252 244 240 250 243 242 246 240 240 234 241 242 244 241 237 231 245 203 240 221 158 95 150 163 167 171 188 187 175 188 200 182 188 167 177 188 222 189 222 211 212 216 217 202 220 229 224 228
245 249 239 251 246 238 216 245 243 239 232 232 235 231 235 238 233 241 227 232 211 169 163 175 164 169 170 181 197 198 201 181 212 181 186 179 186 196 217 220 243 258 36 303 8 2 88 325 313
237 241 242 255 243 230 240 237 233 239 241 252 231 230 231 227 225 217 232 205 225 170 158 169 158 155 165 181 195 201 209 202 191 218 191 174 187 187 188 224 256 222 179 243 253 263 288 287 289
257 253 253 251 230 240 240 237 231 217 219 233 228 238 215 224 226 221 216 193 193 178 163 166 159 157 166 178 188 194 205 198 204 205 202 181 180 182 175 195 220 228 198 205 224 220 244 297 282
236 249 264 269 271 271 239 242 236 217 207 220 239 244 221 208 220 236 202 195 182 175 170 166 169 166 172 181 185 204 189 202 201 195 177 136 139 141 149 185 230 224 214 205 210 200 230 237 254
251 248 246 250 260 268 265 262 242 241 210 212 206 237 217 218 237 219 215 193 174 178 167 181 174 176 178 183 175 188 205 210 191 173 137 125 134 142 162 186 227 267 230 194 167 206 223 246 250
239 250 257 253 259 251 249 258 248 228 245 238 211 211 208 207 228 231 216 191 183 169 157 146 165 175 182 178 185 191 184 174 184 124 95 136 145 161 175 207 247 252 208 262 165 195 209 218 248
291 268 241 262 244 257 256 253 251 222 224 234 240 226 216 199 215 237 236 187 180 159 159 164 175 186 182 181 199 164 150 158 121 133 150 172 187 186 191 196 238 253 263 276 220 221 213 203 255
277 290 300 232 249 243 245 250 227 255 229 220 217 222 222 209 201 220 232 216 182 166 167 165 167 186 183 179 190 157 164 173 172 172 172 168 169 179 189 202 195 215 237 256 281 257 260 235 258
240 234 242 231 224 241 234 244 243 238 247 245 244 210 208 203 211 202 217 216 200 185 168 166 166 180 189 171 169 153 165 204 144 153 165 166 167 154 189 204 192 216 225 278 296 305 302 292 276
270 246 244 211 225 237 222 235 229 231 254 249 275 219 191 197 201 200 209 201 204 184 169 170 165 174 175 162 151 145 153 133 135 164 118 75 87 114 94 72 74 67 50 49 34 20 10 358 358
231 200 249 275 240 239 240 225 232 230 220 238 243 288 184 192 200 196 204 193 189 180 162 156 159 163 154 156 148 151 142 135 106 92 92 81 89 90 88 72 71 56 44 39 22 28 358 337 340
252 319 205 219 252 192 261 252 222 214 210 219 210 211 202 181 189 196 196 191 182 184 143 150 128 122 127 125 122 114 110 106 94 88 92 94 99 102 95 81 76 83 82 58 355 31 100 16 334
241 207 145 300 253 232 241 271 336 316 193 194 183 179 195 155 71 340 240 201 167 131 111 118 118 107 106 106 108 110 107 103 101 101 99 93 99 105 104 121 119 95 70 34 14 358 29 7 1
308 218 206 180 249 249 190 256 293 323 45 160 145 148 136 99 79 37 75 88 92 97 101 102 106 109 113 115 114 112 110 106 98 94 89 81 77 71 63 58 63 62 59 57 26 19 12 3 360